Location: Stara Lesna
(49.1528°N, 20.2911°E)
Time: 19:05:59
(UTC+02:00)

Cosmos 2082 Rocket - Pass Details

Date: 13 July 2020
Orbit: 834 x 853 km, 71.0° (Epoch: 11 August)

Event Time Altitude Azimuth Distance (km) Brightness Sun altitude
Exits shadow 02:54:56 13° 177° (S) 2,281 4.0 -13.4°
Maximum altitude 02:59:44 44° 109° (ESE) 1,164 3.0 -13.0°
Drops below altitude 10° 03:05:07 10° 39° (NE) 2,489 6.2 -12.5°
Sets 03:07:40 0° 33° (NNE) 3,427 7.5 -12.3°
